Location: Unspecified
(35.6961°N, 0.0000°E)
Time: 19:57:24
(UTC+00:00)

Vanguard 2 Rocket - Pass Details

Date: 25 May 2019
Orbit: 555 x 3326 km, 32.9° (Epoch: 24 June)

Event Time Altitude Azimuth Distance (km) Brightness Sun altitude
Rises 03:05:08 0° 215° (SW) 7,139 - -18.0°
Reaches altitude 10° 03:10:21 10° 208° (SSW) 6,240 - -17.2°
Exits shadow 03:12:36 15° 205° (SSW) 5,866 10.4 -16.9°
Maximum altitude 03:28:08 40° 148° (SSE) 4,039 10.1 -14.5°
Drops below altitude 10° 03:42:19 10° 86° (E) 5,071 11.6 -12.3°
Sets 03:45:57 0° 79° (E) 5,743 12.3 -11.7°
